TimeCST,TemperatureF,Dew PointF,Humidity,Sea Level PressureIn,VisibilityMPH,Wind Direction,Wind SpeedMPH,Gust SpeedMPH,PrecipitationIn,Events,Conditions,WindDirDegrees,DateUTC
12:13 AM,14.0,10.4,86,29.43,7.0,NNW,18.4,-,N/A,,Overcast,340,2013-01-12 06:13:00
12:34 AM,14.0,10.4,86,29.44,7.0,NNW,19.6,27.6,N/A,Snow,Light Snow,340,2013-01-12 06:34:00
12:53 AM,12.2,10.4,92,29.44,5.0,NNW,19.6,26.5,N/A,Snow,Light Snow,340,2013-01-12 06:53:00
1:34 AM,12.2,8.6,85,29.48,5.0,NNW,18.4,27.6,N/A,Snow,Light Snow,340,2013-01-12 07:34:00
1:53 AM,12.2,8.6,85,29.51,4.0,NNW,20.7,-,N/A,Snow,Light Snow,340,2013-01-12 07:53:00
2:13 AM,12.2,8.6,85,29.53,5.0,NNW,23.0,-,N/A,Snow,Light Snow,340,2013-01-12 08:13:00
2:34 AM,10.4,8.6,92,29.54,1.8,NNW,24.2,27.6,N/A,Snow,Light Snow,340,2013-01-12 08:34:00
2:53 AM,10.4,6.8,85,29.55,2.5,NNW,20.7,27.6,N/A,Snow,Light Snow,340,2013-01-12 08:53:00
3:13 AM,10.4,6.8,85,29.56,2.0,NNW,21.9,27.6,N/A,Snow,Light Snow,340,2013-01-12 09:13:00
3:33 AM,10.4,6.8,85,29.57,2.0,NNW,21.9,29.9,N/A,Snow,Light Snow,340,2013-01-12 09:33:00
3:53 AM,10.4,6.8,85,29.58,2.5,NNW,19.6,25.3,N/A,Snow,Light Snow,340,2013-01-12 09:53:00
4:13 AM,8.6,5.0,85,29.60,1.8,NNW,25.3,32.2,N/A,Snow,Light Snow,340,2013-01-12 10:13:00
4:33 AM,8.6,5.0,85,29.62,1.5,NNW,21.9,32.2,N/A,Snow,Light Snow,340,2013-01-12 10:33:00
4:53 AM,8.6,3.2,79,29.63,2.0,NNW,21.9,-,N/A,,Overcast,340,2013-01-12 10:53:00
5:13 AM,6.8,3.2,85,29.64,1.2,NNW,26.5,31.1,N/A,,Overcast,340,2013-01-12 11:13:00
5:33 AM,6.8,3.2,85,29.67,1.2,NNW,21.9,27.6,N/A,Snow,Light Snow,340,2013-01-12 11:33:00
5:53 AM,6.8,1.4,79,29.68,1.8,NNW,21.9,27.6,N/A,,Overcast,340,2013-01-12 11:53:00
6:13 AM,6.8,1.4,79,29.70,1.5,NNW,19.6,29.9,N/A,Snow,Light Snow,340,2013-01-12 12:13:00
6:33 AM,5.0,1.4,85,29.72,1.2,NNW,26.5,32.2,N/A,Snow,Light Snow,340,2013-01-12 12:33:00
6:53 AM,5.0,1.4,85,29.74,2.5,NNW,19.6,24.2,N/A,,Overcast,340,2013-01-12 12:53:00
7:14 AM,3.2,-0.4,85,29.76,3.0,NNW,21.9,26.5,N/A,,Overcast,340,2013-01-12 13:14:00
7:33 AM,3.2,-0.4,85,29.78,2.5,NNW,20.7,24.2,N/A,,Haze,340,2013-01-12 13:33:00
7:53 AM,3.2,-0.4,85,29.79,5.0,NNW,15.0,21.9,N/A,,Haze,340,2013-01-12 13:53:00
8:14 AM,3.2,-2.2,78,29.79,7.0,NNW,18.4,27.6,N/A,,Mostly Cloudy,340,2013-01-12 14:14:00
8:33 AM,1.4,-2.2,85,29.81,2.5,NNW,17.3,29.9,N/A,,Haze,340,2013-01-12 14:33:00
8:53 AM,1.4,-2.2,85,29.83,1.8,NNW,20.7,28.8,N/A,,Overcast,340,2013-01-12 14:53:00
9:14 AM,1.4,-2.2,85,29.84,10.0,NNW,16.1,-,N/A,,Mostly Cloudy,340,2013-01-12 15:14:00
9:33 AM,1.4,-2.2,85,-9999,4.0,NNW,18.4,26.5,N/A,,Haze,340,2013-01-12 15:33:00
9:53 AM,1.4,-2.2,85,-9999,5.0,NNW,17.3,-,N/A,,Haze,340,2013-01-12 15:53:00
10:14 AM,1.4,-2.2,85,29.88,5.0,NNW,16.1,21.9,N/A,,Haze,340,2013-01-12 16:14:00
10:33 AM,1.4,-2.2,85,29.88,4.0,NNW,18.4,23.0,N/A,,Haze,340,2013-01-12 16:33:00
11:14 AM,3.2,-2.2,78,29.91,3.0,NNW,17.3,-,N/A,,Haze,340,2013-01-12 17:14:00
11:33 AM,3.2,-4.0,72,29.92,10.0,NNW,17.3,-,N/A,,Scattered Clouds,340,2013-01-12 17:33:00
11:53 AM,3.2,-4.0,72,29.92,4.0,NNW,17.3,-,N/A,,Haze,340,2013-01-12 17:53:00
12:33 PM,1.4,-4.0,78,29.95,4.0,NNW,19.6,24.2,N/A,,Haze,340,2013-01-12 18:33:00
12:53 PM,3.2,-2.2,78,29.95,5.0,NNW,16.1,-,N/A,,Haze,330,2013-01-12 18:53:00
1:14 PM,1.4,-5.8,72,29.96,10.0,NW,15.0,-,N/A,,Scattered Clouds,320,2013-01-12 19:14:00
1:33 PM,1.4,-5.8,72,29.96,10.0,NW,17.3,-,N/A,,Clear,320,2013-01-12 19:33:00
1:53 PM,3.2,-4.0,72,29.97,7.0,NW,18.4,-,N/A,,Clear,320,2013-01-12 19:53:00
2:14 PM,3.2,-4.0,72,29.98,10.0,WNW,17.3,-,N/A,,Scattered Clouds,300,2013-01-12 20:14:00
2:33 PM,1.4,-4.0,78,29.99,2.5,NW,18.4,-,N/A,,Haze,310,2013-01-12 20:33:00
2:53 PM,1.4,-4.0,78,29.99,2.0,NNW,20.7,25.3,N/A,,Haze,330,2013-01-12 20:53:00
3:14 PM,1.4,-4.0,78,30.00,10.0,NW,19.6,24.2,N/A,,Scattered Clouds,320,2013-01-12 21:14:00
3:33 PM,1.4,-4.0,78,30.01,10.0,NNW,18.4,-,N/A,,Scattered Clouds,330,2013-01-12 21:33:00
3:53 PM,1.4,-2.2,85,30.01,5.0,NW,17.3,-,N/A,,Haze,320,2013-01-12 21:53:00
4:14 PM,1.4,-5.8,72,30.02,10.0,NNW,19.6,25.3,N/A,,Scattered Clouds,330,2013-01-12 22:14:00
4:33 PM,1.4,-5.8,72,30.02,10.0,NNW,17.3,-,N/A,,Clear,330,2013-01-12 22:33:00
4:53 PM,1.4,-4.0,78,30.02,10.0,NNW,13.8,18.4,N/A,,Clear,330,2013-01-12 22:53:00
5:13 PM,1.4,-4.0,78,30.02,10.0,NNW,18.4,-,N/A,,Clear,340,2013-01-12 23:13:00
5:33 PM,1.4,-4.0,78,30.03,10.0,NNW,18.4,23.0,N/A,,Clear,340,2013-01-12 23:33:00
5:54 PM,1.4,-5.8,72,30.03,10.0,NNW,18.4,24.2,N/A,,Clear,340,2013-01-12 23:54:00
6:13 PM,1.4,-5.8,72,30.03,10.0,NNW,18.4,25.3,N/A,,Clear,340,2013-01-13 00:13:00
6:33 PM,-0.4,-5.8,78,30.04,10.0,North,17.3,23.0,N/A,,Clear,350,2013-01-13 00:33:00
6:51 PM,-0.4,-5.8,78,30.05,-9999.0,NNW,19.6,23.0,N/A,,Scattered Clouds,340,2013-01-13 00:51:00
7:13 PM,-0.4,-5.8,78,30.06,10.0,NNW,16.1,23.0,N/A,,Mostly Cloudy,340,2013-01-13 01:13:00
7:33 PM,-0.4,-5.8,78,30.06,10.0,NNW,13.8,26.5,N/A,,Mostly Cloudy,340,2013-01-13 01:33:00
7:53 PM,-0.4,-5.8,78,30.08,7.0,North,8.1,20.7,N/A,,Overcast,360,2013-01-13 01:53:00
8:13 PM,-0.4,-5.8,78,30.08,10.0,North,16.1,23.0,N/A,,Overcast,350,2013-01-13 02:13:00
8:33 PM,-0.4,-5.8,78,30.10,7.0,North,11.5,21.9,N/A,,Overcast,350,2013-01-13 02:33:00
8:53 PM,-0.4,-7.6,72,30.11,10.0,North,15.0,24.2,N/A,,Overcast,350,2013-01-13 02:53:00
9:13 PM,-0.4,-5.8,78,30.11,10.0,NNW,11.5,17.3,N/A,,Overcast,340,2013-01-13 03:13:00
9:33 PM,-0.4,-5.8,78,30.12,7.0,North,13.8,20.7,N/A,,Mostly Cloudy,350,2013-01-13 03:33:00
9:53 PM,-0.4,-5.8,78,30.12,10.0,North,13.8,19.6,N/A,,Overcast,350,2013-01-13 03:53:00
10:13 PM,-0.4,-5.8,78,30.13,10.0,North,8.1,-,N/A,,Overcast,350,2013-01-13 04:13:00
10:33 PM,-0.4,-7.6,72,30.14,10.0,North,10.4,16.1,N/A,,Mostly Cloudy,350,2013-01-13 04:33:00
10:53 PM,-0.4,-7.6,72,30.13,10.0,North,16.1,19.6,N/A,,Scattered Clouds,350,2013-01-13 04:53:00
11:13 PM,-0.4,-7.6,72,30.13,10.0,North,13.8,19.6,N/A,,Clear,350,2013-01-13 05:13:00
11:33 PM,-2.2,-7.6,78,30.13,10.0,NNW,12.7,18.4,N/A,,Clear,330,2013-01-13 05:33:00